Weather History for Charlotte, NC

Change the Weather History Date:

Tuesday, May 13, 2014

  Actual Average Record
Temperature  
Mean Temperature 77 °F 66 °F  
Max Temperature 88 °F 78 °F 93 °F (1881)
Min Temperature 65 °F 55 °F 38 °F (1960)
Degree Days  
Heating Degree Days 0 2  
Month to date heating degree days 11 33  
Since 1 July heating degree days 3373 3365  
Cooling Degree Days 12 3  
Month to date cooling degree days 72 32  
Year to date cooling degree days 111 69  
Growing Degree Days 26 (Base 50)    
Moisture  
Dew Point 64 °F    
Average Humidity 65    
Maximum Humidity 87    
Minimum Humidity 43    
Precipitation  
Precipitation 0.00 in 0.10 in 2.46 in (1919)
Month to date precipitation 0.59 1.28  
Year to date precipitation 19.33 15.06  
Snow  
Snow 0.00 in 0.00 in 0.00 in ()
Month to date snowfall T 0.0  
Since 1 July snowfall 9.3 4.3  
Snow Depth 0.00 in    
Sea Level Pressure  
Sea Level Pressure 30.12 in    
Wind  
Wind Speed 5 mph (SSW)    
Max Wind Speed 13 mph    
Max Gust Speed 20 mph    
Visibility 10 miles    
Events      
T = Trace of Precipitation, MM = Missing Value Source: NWS Daily Summary

Daily Weather History Graph

Daily Weather History Graph

Search for Another Location

Airport:

Trip Planner

Search our weather history database for the weather conditions in past years. The results will help you decide how hot, cold, wet, or windy it might be!

Date:

Astronomy

May. 13, 2014 Rise Set
Actual Time 6:21 AM EDT 8:19 PM EDT
Civil Twilight 5:53 AM EDT 8:47 PM EDT
Nautical Twilight 5:19 AM EDT 9:21 PM EDT
Astronomical Twilight 4:42 AM EDT 9:58 PM EDT
Moon 7:21 PM EDT (5/13) 5:33 AM EDT (5/13)
Length of Visible Light 14h 54m
Length of Day
13h 58m
Waxing Gibbous, 98% of the Moon is Illuminated
May 13
Waxing Gibbous
May 14
Full
May 21
Last Quarter
May 28
New
Jun 5
First Quarter

Hourly Weather History & Observations

Time (EDT) Temp. Heat Index Dew Point Humidity Pressure Visibility Wind Dir Wind Speed Gust Speed Precip Events Conditions
12:52 AM 72.0 °F - 63.0 °F 73% 30.11 in 10.0 mi South 5.8 mph - N/A   Clear
1:52 AM 66.9 °F - 63.0 °F 87% 30.10 in 10.0 mi Calm Calm - N/A   Clear
2:52 AM 69.1 °F - 63.0 °F 81% 30.11 in 10.0 mi SSE 5.8 mph - N/A   Clear
3:52 AM 68.0 °F - 63.0 °F 84% 30.12 in 10.0 mi SSE 4.6 mph - N/A   Clear
4:52 AM 66.2 °F - 62.6 °F 88% 30.15 in 10.0 mi South 3.5 mph - N/A   Partly Cloudy
5:52 AM 66.9 °F - 62.1 °F 84% 30.13 in 10.0 mi Calm Calm - N/A   Clear
6:52 AM 66.0 °F - 63.0 °F 90% 30.14 in 10.0 mi Calm Calm - N/A   Clear
7:52 AM 71.6 °F - 64.4 °F 78% 30.18 in 10.0 mi SSW 3.5 mph - N/A   Partly Cloudy
8:52 AM 73.4 °F - 64.4 °F 73% 30.18 in 10.0 mi Variable 5.8 mph - N/A   Partly Cloudy
9:52 AM 78.1 °F - 66.0 °F 66% 30.16 in 10.0 mi Variable 4.6 mph - N/A   Partly Cloudy
11:52 AM 82.4 °F 84.6 °F 66.2 °F 58% 30.19 in 10.0 mi SW 8.1 mph - N/A   Clear
12:52 PM 84.0 °F 86.3 °F 66.0 °F 55% 30.15 in 10.0 mi SW 4.6 mph - N/A   Scattered Clouds
1:52 PM 87.1 °F 88.3 °F 64.0 °F 46% 30.13 in 10.0 mi SW 8.1 mph - N/A   Scattered Clouds
2:52 PM 87.1 °F 87.8 °F 63.0 °F 44% 30.11 in 10.0 mi SW 8.1 mph - N/A   Scattered Clouds
3:52 PM 87.1 °F 87.8 °F 63.0 °F 44% 30.09 in 10.0 mi SSW 10.4 mph - N/A   Scattered Clouds
4:52 PM 87.1 °F 87.8 °F 63.0 °F 44% 30.07 in 10.0 mi SSW 9.2 mph - N/A   Scattered Clouds
5:52 PM 87.1 °F 87.8 °F 63.0 °F 44% 30.07 in 10.0 mi SW 9.2 mph - N/A   Scattered Clouds
6:52 PM 84.9 °F 85.4 °F 62.1 °F 46% 30.07 in 10.0 mi SSW 8.1 mph - N/A   Scattered Clouds
7:52 PM 82.0 °F 83.0 °F 62.1 °F 51% 30.08 in 10.0 mi SSW 4.6 mph - N/A   Scattered Clouds
8:52 PM 78.1 °F - 63.0 °F 60% 30.09 in 10.0 mi SSW 4.6 mph - N/A   Partly Cloudy
9:52 PM 75.0 °F - 62.1 °F 64% 30.11 in 10.0 mi South 3.5 mph - N/A   Scattered Clouds
10:52 PM 77.0 °F - 64.0 °F 64% 30.13 in 10.0 mi South 6.9 mph - N/A   Mostly Cloudy
11:52 PM 73.0 °F - 63.0 °F 71% 30.13 in 10.0 mi South 4.6 mph - N/A   Scattered Clouds